Wetbulb
49.12 48.17 47.67 47.44 48.38 47.72 47.65 48.21 48.33 48.26 47.76 47.08 47.53 48.05 47.63 46.71 46.06 44.35 43.29 43.00 42.88 42.66 43.01 43.03 43.36 44.49 44.79 45.32 45.01 44.26 44.38 45.43 43.09 44.19 44.40 44.70 44.38 44.92 45.94 47.66 48.72 47.97 48.49
48.77 48.38 47.70 47.87 48.24 48.02 47.65 47.58 47.90 47.75 47.47 46.85 47.33 47.97 47.90 47.20 46.41 44.66 43.98 43.56 42.55 42.34 43.22 42.71 42.65 43.65 44.00 45.34 45.57 43.83 44.32 44.99 43.53 41.08 42.83 42.69 43.75 46.05 45.37 45.58 45.59 46.37 46.85
48.96 48.04 47.56 47.82 47.91 47.65 48.25 48.41 47.59 47.68 47.06 46.51 46.82 47.12 47.52 47.63 47.04 46.51 45.13 45.04 44.66 43.38 43.06 42.42 42.38 43.23 42.77 43.96 45.22 44.27 43.95 44.75 43.88 42.40 41.28 42.96 43.66 43.48 43.14 44.72 43.98 44.13 45.45
48.48 47.82 47.73 48.19 48.34 47.90 47.54 47.60 48.07 47.69 46.65 46.99 46.97 47.35 47.56 47.75 47.61 47.44 46.81 46.10 45.47 45.12 44.31 42.86 42.68 42.92 42.65 44.21 43.91 44.20 44.39 43.45 42.44 41.35 41.02 40.90 42.37 42.85 41.83 40.55 40.60 43.06 43.58
47.95 47.30 47.09 47.92 48.31 47.17 47.21 47.99 47.53 47.18 47.56 47.35 47.12 47.66 47.50 47.00 47.05 47.12 46.56 45.56 44.38 43.60 43.04 42.25 43.12 43.84 45.62 44.99 44.71 43.66 43.19 42.20 41.16 39.60 39.15 39.96 40.43 40.52 39.26 40.45 39.81 42.16 43.62
46.74 47.10 47.81 47.79 47.49 47.65 47.76 46.69 46.61 46.67 46.12 45.77 46.31 46.10 45.62 45.58 45.95 46.80 47.86 45.62 43.39 41.56 40.73 41.61 41.65 43.16 42.72 44.29 44.24 44.89 44.30 42.02 40.32 39.84 39.81 39.19 39.28 40.52 40.10 39.35 39.72 39.83 39.83
47.14 47.26 47.85 48.48 48.44 47.93 47.29 46.86 46.59 45.30 44.76 44.29 44.66 44.75 45.12 45.42 44.95 44.43 45.10 42.51 41.39 40.61 40.60 40.39 40.10 41.56 42.64 41.77 43.07 43.60 43.19 43.39 42.77 42.32 39.65 39.92 39.75 40.36 39.78 39.57 40.49 40.26 40.37
46.61 47.62 48.75 47.75 47.23 46.99 46.23 45.58 44.57 44.50 44.24 43.86 44.35 44.85 45.01 44.85 43.79 42.60 43.78 42.07 41.08 40.95 40.68 40.25 39.92 41.11 41.36 42.07 41.30 40.61 41.10 41.39 41.69 41.82 42.11 42.13 42.34 42.63 42.24 41.81 42.40 41.49 43.40
47.08 48.01 47.21 47.25 46.72 46.51 46.04 44.51 44.06 43.81 43.67 43.61 44.26 44.89 44.31 44.11 42.50 42.17 42.56 41.55 40.67 40.31 40.18 40.60 40.93 41.80 41.91 41.89 40.64 39.33 39.30 39.98 41.60 41.79 42.11 43.12 42.54 42.27 42.19 42.11 40.47 39.50 39.83
46.59 47.18 47.36 47.06 46.74 46.20 45.34 44.11 44.23 43.24 43.23 43.52 44.57 44.92 43.53 43.99 41.76 41.40 42.28 41.40 39.71 39.23 40.56 41.92 41.85 42.06 41.64 41.16 40.29 39.26 37.84 38.71 39.02 40.12 41.35 42.12 42.09 41.94 41.54 43.31 42.38 38.96 39.47
47.21 47.34 47.15 47.69 47.04 46.06 45.44 43.83 43.07 42.40 42.73 42.96 42.43 43.88 43.48 43.22 43.39 41.12 41.21 41.68 40.30 39.52 40.01 40.16 41.88 41.50 40.85 40.33 40.42 39.73 39.01 40.15 39.76 39.11 38.95 39.20 40.25 40.37 41.81 43.04 43.52 41.51 40.62
46.73 47.82 47.24 46.81 45.50 44.92 43.41 42.54 42.53 42.73 42.17 41.65 41.15 42.32 42.72 42.79 41.44 41.04 40.60 41.01 42.24 40.64 40.33 40.65 41.51 40.50 40.09 39.88 40.14 40.02 39.78 40.38 39.02 38.01 37.92 38.10 38.30 38.48 40.31 41.91 43.57 43.50 44.78
46.62 46.32 46.24 45.42 44.22 42.99 42.75 42.48 42.03 41.87 40.98 41.43 41.13 40.92 41.26 42.01 41.24 40.49 40.20 40.39 41.40 40.91 41.80 41.18 40.79 40.15 40.01 40.54 40.70 40.85 40.85 39.42 37.91 37.06 37.21 37.58 38.70 39.51 40.85 41.79 43.89 44.86 45.77
45.93 45.99 45.77 43.74 43.04 42.36 41.08 41.05 41.10 40.80 41.11 41.48 41.07 40.90 40.72 40.88 40.76 41.56 41.86 41.80 41.58 41.23 41.60 41.29 41.55 40.92 40.94 41.44 40.89 40.20 39.89 39.39 38.17 37.50 37.40 38.38 39.79 39.78 39.40 41.53 41.71 43.11 43.61
45.92 45.54 44.94 43.99 43.05 41.77 40.83 40.67 41.76 41.57 41.19 41.89 41.27 40.13 39.59 39.80 40.81 39.65 38.85 39.48 39.89 39.82 39.60 39.81 39.96 40.20 39.62 39.72 39.88 39.67 39.31 38.68 37.83 37.70 37.39 37.52 38.17 38.62 38.95 40.76 41.18 42.06 42.13
45.54 44.32 43.76 43.83 42.27 40.45 40.06 41.94 39.67 38.80 38.72 38.00 38.01 39.11 41.69 38.89 38.38 38.29 38.13 37.75 37.56 37.86 38.52 38.61 38.75 39.06 38.69 38.73 38.22 37.62 37.47 37.26 37.32 37.16 36.91 36.96 37.74 38.00 38.51 39.96 40.66 40.56 40.98
44.56 44.96 43.77 43.06 42.22 40.64 41.10 42.08 41.42 42.38 39.82 38.90 38.42 38.58 38.68 38.11 37.86 37.65 37.51 37.28 37.10 37.56 38.68 38.64 38.58 38.76 38.57 38.44 37.16 36.43 34.99 36.18 37.17 36.71 36.21 36.36 37.41 37.62 38.47 39.24 39.21 39.91 41.08
45.71 41.42 42.69 41.68 41.02 40.63 41.03 42.38 42.02 41.83 40.49 40.35 39.65 38.71 38.38 37.50 37.26 37.10 36.96 37.53 38.99 39.35 38.80 38.23 37.65 37.65 37.09 36.79 36.25 35.40 35.57 35.40 35.58 35.58 35.57 35.91 36.51 37.42 38.18 38.68 38.49 38.88 40.35
44.14 42.04 41.05 40.99 40.54 40.26 41.49 42.18 42.17 41.19 39.89 39.52 39.97 39.62 38.73 37.49 36.85 37.11 37.47 39.48 38.31 38.12 38.13 37.26 37.47 36.25 35.91 36.07 35.76 35.19 34.51 34.50 35.06 35.04 34.68 35.04 35.73 37.56 38.11 38.91 38.42 35.77 37.25
41.74 39.27 38.98 41.01 41.53 41.48 41.53 41.70 41.50 40.45 39.41 39.32 39.04 39.20 39.86 38.30 38.59 39.52 40.14 39.67 38.92 37.83 36.93 36.01 36.17 36.04 35.89 35.38 34.60 33.61 33.97 34.32 34.51 34.53 34.33 34.68 35.57 36.86 38.40 38.17 38.27 38.60 39.45
41.73 42.74 35.87 42.21 41.88 41.27 41.18 41.70 40.75 39.64 39.37 38.93 39.07 39.10 33.96 36.45 38.21 39.25 39.16 38.82 37.30 35.32 35.08 34.93 34.54 34.75 34.78 34.84 34.01 33.97 33.79 33.79 34.15 34.18 34.17 34.51 34.86 36.49 38.24 38.21 38.32 38.69 39.68
42.03 42.10 42.07 41.58 41.56 41.75 41.67 41.03 40.04 39.74 39.27 38.84 39.20 39.03 34.45 39.15 39.02 39.16 38.53 37.60 36.55 35.70 35.52 34.63 33.71 33.91 34.48 33.65 32.79 32.88 32.90 32.88 33.62 34.02 34.00 34.33 34.86 37.09 38.07 37.71 38.11 39.24 40.60
42.15 42.04 41.94 41.72 41.47 38.21 40.65 40.36 39.89 39.61 39.30 39.13 38.86 38.43 38.60 38.89 38.65 37.98 37.21 36.37 35.86 35.01 35.35 35.20 34.66 33.91 34.48 34.34 34.19 33.23 32.90 33.26 33.99 34.53 34.69 34.88 35.60 37.15 37.61 37.50 38.45 39.47 41.44
42.18 42.10 41.73 41.39 41.32 41.03 40.52 40.14 39.69 36.73 38.31 38.87 38.63 38.74 39.06 39.07 37.63 37.02 36.03 35.48 35.12 34.96 35.55 35.40 35.20 34.86 35.20 36.10 36.51 36.69 36.02 35.04 35.07 35.03 36.19 36.29 36.69 36.61 37.78 38.27 39.22 41.29 41.99
42.10 41.60 41.29 40.94 40.66 40.05 40.00 39.58 39.15 39.13 38.73 38.73 39.13 39.13 39.06 37.80 36.51 36.00 35.32 35.14 34.96 34.97 35.83 36.07 36.65 36.73 36.98 36.86 36.03 34.34 32.49 31.80 33.65 33.47 36.84 37.60 37.17 37.97 38.11 38.57 40.34 42.22 42.29
41.70 41.40 40.78 40.58 39.83 39.43 39.04 38.57 38.59 38.74 38.47 38.83 39.10 38.47 37.78 36.41 35.85 35.21 34.94 34.97 35.29 35.60 35.97 36.64 36.80 37.17 37.46 36.23 34.27 32.21 32.13 32.13 33.37 33.70 37.29 38.01 37.70 38.29 38.96 39.67 42.22 43.13 42.89
MSLP
1019.71 1019.92 1019.91 1020.20 1020.55 1020.65 1020.62 1020.79 1020.83 1020.63 1020.69 1020.75 1020.71 1020.59 1020.48 1020.36 1020.27 1020.30 1020.13 1019.95 1019.93 1019.73 1019.41 1019.17 1018.86 1018.61 1018.21 1017.68 1017.11 1016.69 1016.23 1015.75 1014.82 1014.13 1013.89 1013.47 1013.04 1012.47 1011.86 1011.51 1010.95 1010.37 1009.61
1019.48 1019.82 1019.82 1020.05 1020.30 1020.57 1020.64 1020.65 1020.68 1020.61 1020.59 1020.62 1020.51 1020.37 1020.22 1020.03 1019.92 1019.91 1019.73 1019.51 1019.43 1019.19 1018.86 1018.80 1018.53 1018.18 1017.80 1017.22 1016.60 1016.21 1015.77 1015.24 1014.80 1014.09 1013.71 1013.24 1012.75 1012.21 1011.90 1011.38 1010.72 1009.96 1009.34
1019.36 1019.54 1019.78 1020.06 1020.43 1020.63 1020.47 1020.51 1020.59 1020.67 1020.54 1020.34 1020.29 1020.15 1020.03 1019.73 1019.49 1019.25 1019.24 1019.05 1018.76 1018.63 1018.69 1018.64 1018.26 1017.94 1017.38 1016.81 1016.25 1015.79 1015.25 1014.65 1014.29 1013.81 1013.25 1012.90 1012.51 1012.12 1011.57 1010.98 1010.35 1009.56 1008.79
1019.39 1019.55 1019.78 1020.14 1020.38 1020.47 1020.52 1020.54 1020.58 1020.51 1020.34 1020.09 1019.93 1019.72 1019.43 1019.20 1019.01 1018.81 1018.64 1018.35 1018.17 1018.10 1018.13 1018.18 1017.90 1017.56 1017.09 1016.45 1015.91 1015.42 1014.98 1014.47 1014.05 1013.49 1013.00 1012.55 1012.30 1011.84 1011.64 1010.99 1009.88 1009.10 1008.25
1019.39 1019.64 1019.91 1020.08 1020.25 1020.43 1020.47 1020.40 1020.27 1020.11 1019.99 1019.91 1019.63 1019.33 1019.10 1018.99 1018.65 1018.42 1018.26 1018.12 1018.04 1017.95 1017.92 1017.78 1017.44 1017.08 1016.55 1016.14 1015.59 1015.17 1014.81 1014.29 1013.81 1013.31 1012.82 1012.42 1011.87 1011.48 1011.26 1010.90 1010.34 1009.18 1008.07
1019.40 1019.64 1019.78 1020.02 1020.24 1020.30 1020.19 1020.14 1020.02 1019.89 1019.83 1019.63 1019.42 1019.22 1018.96 1018.70 1018.34 1018.17 1018.12 1018.06 1018.04 1018.00 1017.70 1017.33 1017.00 1016.61 1016.23 1015.71 1015.23 1014.86 1014.54 1013.96 1013.46 1012.99 1012.50 1012.02 1011.75 1011.37 1011.17 1010.78 1010.17 1009.24 1008.14
1019.43 1019.65 1019.69 1019.76 1019.89 1019.94 1019.92 1019.91 1019.85 1019.77 1019.62 1019.45 1019.19 1019.00 1018.68 1018.43 1018.15 1018.08 1018.07 1018.12 1018.12 1017.93 1017.60 1017.13 1016.62 1016.09 1015.81 1015.31 1014.81 1014.51 1013.98 1013.45 1013.09 1012.72 1012.28 1011.86 1011.48 1011.19 1010.97 1010.44 1009.85 1009.35 1008.49
1019.50 1019.50 1019.45 1019.50 1019.55 1019.70 1019.78 1019.85 1019.78 1019.63 1019.51 1019.22 1018.80 1018.56 1018.42 1018.13 1018.03 1018.03 1018.06 1018.03 1017.91 1017.62 1017.27 1016.79 1016.28 1015.66 1015.32 1014.93 1014.58 1014.04 1013.42 1012.90 1012.51 1012.23 1011.91 1011.49 1011.25 1010.91 1010.71 1010.29 1009.73 1009.10 1008.13
1019.33 1019.34 1019.36 1019.43 1019.47 1019.57 1019.67 1019.64 1019.56 1019.48 1019.19 1018.84 1018.50 1018.31 1018.24 1018.06 1017.86 1017.85 1017.88 1017.77 1017.54 1017.08 1016.58 1016.22 1015.81 1015.23 1014.82 1014.64 1014.17 1013.63 1012.99 1012.38 1012.00 1011.71 1011.36 1010.96 1010.69 1010.39 1010.22 1009.85 1009.48 1009.05 1008.10
1019.14 1019.03 1019.23 1019.38 1019.44 1019.48 1019.54 1019.58 1019.41 1019.30 1019.03 1018.66 1018.23 1018.03 1018.08 1018.00 1017.65 1017.56 1017.54 1017.42 1017.08 1016.56 1015.96 1015.48 1015.16 1014.76 1014.36 1014.07 1013.74 1013.29 1012.68 1012.17 1011.90 1011.36 1010.89 1010.54 1010.29 1010.11 1009.84 1009.62 1009.35 1008.93 1008.46
1019.08 1018.93 1019.10 1019.28 1019.23 1019.27 1019.31 1019.37 1019.24 1019.07 1018.79 1018.43 1018.17 1018.01 1017.92 1017.78 1017.42 1017.19 1016.94 1016.80 1016.40 1015.97 1015.45 1014.88 1014.36 1014.09 1013.77 1013.46 1013.22 1012.87 1012.42 1012.03 1011.53 1011.21 1010.84 1010.46 1010.08 1009.84 1009.56 1009.23 1008.95 1008.75 1008.36
1018.99 1018.91 1019.08 1019.08 1019.11 1019.17 1019.30 1019.16 1018.97 1018.91 1018.61 1018.35 1018.14 1017.82 1017.62 1017.41 1017.14 1016.76 1016.41 1016.14 1015.77 1015.48 1014.78 1014.22 1013.77 1013.42 1013.15 1012.87 1012.56 1012.23 1011.95 1011.62 1011.28 1010.94 1010.58 1010.15 1009.90 1009.60 1009.22 1008.84 1008.46 1008.14 1007.91
1019.16 1019.00 1018.97 1019.07 1019.13 1019.10 1019.12 1018.94 1018.73 1018.66 1018.51 1018.31 1018.10 1017.82 1017.47 1017.06 1016.70 1016.36 1015.94 1015.56 1015.13 1014.73 1014.03 1013.46 1013.16 1012.89 1012.60 1012.31 1011.97 1011.72 1011.44 1011.22 1010.96 1010.67 1010.33 1010.02 1009.77 1009.44 1009.02 1008.53 1007.98 1007.50 1007.09
1019.17 1019.09 1019.02 1019.14 1019.15 1019.05 1018.94 1018.85 1018.64 1018.47 1018.34 1018.13 1017.88 1017.71 1017.42 1016.86 1016.48 1016.12 1015.65 1015.03 1014.39 1013.85 1013.29 1012.86 1012.56 1012.25 1011.90 1011.69 1011.37 1011.20 1011.07 1010.88 1010.68 1010.39 1010.13 1009.90 1009.63 1009.28 1008.79 1008.45 1007.89 1007.41 1006.96
1019.12 1019.06 1019.09 1019.17 1019.13 1018.95 1018.74 1018.44 1018.31 1018.13 1018.07 1017.94 1017.88 1017.78 1017.40 1016.74 1016.27 1015.93 1015.41 1014.85 1014.30 1013.62 1013.05 1012.51 1011.97 1011.53 1011.19 1011.01 1010.82 1010.69 1010.62 1010.49 1010.26 1010.15 1009.92 1009.69 1009.46 1009.18 1008.78 1008.33 1007.95 1007.52 1007.13
1018.96 1019.07 1019.07 1018.99 1018.84 1018.67 1018.39 1018.05 1017.93 1017.83 1017.62 1017.73 1017.65 1017.50 1017.06 1016.62 1015.96 1015.49 1014.97 1014.31 1013.74 1013.03 1012.60 1011.94 1011.43 1011.08 1010.75 1010.52 1010.42 1010.30 1010.25 1010.12 1009.95 1009.80 1009.67 1009.51 1009.30 1009.09 1008.78 1008.33 1008.01 1007.71 1007.32
1018.90 1018.96 1018.95 1018.88 1018.62 1018.43 1018.23 1018.15 1018.03 1017.49 1017.39 1017.49 1017.45 1017.25 1016.95 1016.35 1015.66 1015.11 1014.43 1013.86 1013.15 1012.66 1012.29 1011.65 1011.15 1010.70 1010.35 1010.16 1010.17 1010.06 1009.91 1009.84 1009.67 1009.50 1009.45 1009.30 1009.09 1009.00 1008.71 1008.35 1008.09 1007.87 1007.43
1018.74 1018.78 1018.83 1018.62 1018.39 1018.21 1018.07 1018.00 1017.98 1017.84 1017.76 1017.60 1017.22 1017.18 1016.61 1016.05 1015.35 1014.57 1013.97 1013.49 1012.78 1012.19 1011.89 1011.42 1010.99 1010.68 1010.35 1010.05 1009.86 1009.72 1009.56 1009.47 1009.33 1009.24 1009.18 1009.11 1008.98 1008.85 1008.60 1008.38 1008.20 1008.03 1007.72
1018.56 1018.63 1018.66 1018.53 1018.33 1018.06 1017.91 1017.90 1017.98 1018.04 1017.92 1017.69 1017.39 1016.92 1016.43 1015.86 1014.99 1014.16 1013.63 1013.25 1012.66 1012.10 1011.68 1011.31 1010.89 1010.53 1010.15 1009.84 1009.55 1009.39 1009.21 1009.19 1009.10 1008.99 1008.95 1008.89 1008.83 1008.69 1008.51 1008.43 1008.33 1008.17 1007.90
1018.58 1018.59 1018.60 1018.53 1018.35 1018.05 1018.04 1018.15 1018.15 1018.07 1017.98 1017.83 1017.57 1017.03 1016.27 1015.62 1014.74 1013.94 1013.37 1012.95 1012.52 1012.14 1011.83 1011.35 1010.79 1010.33 1009.94 1009.61 1009.33 1009.03 1008.98 1008.90 1008.80 1008.73 1008.70 1008.70 1008.70 1008.68 1008.49 1008.48 1008.42 1008.27 1008.06
1018.58 1018.50 1018.75 1018.36 1018.41 1018.43 1018.39 1018.39 1018.44 1018.34 1018.24 1017.97 1017.62 1017.01 1016.53 1016.00 1014.97 1014.06 1013.47 1013.03 1012.72 1012.35 1011.92 1011.37 1010.78 1010.25 1009.78 1009.40 1009.18 1008.95 1008.76 1008.63 1008.55 1008.51 1008.53 1008.58 1008.64 1008.61 1008.58 1008.56 1008.50 1008.38 1008.28
1018.76 1018.86 1018.68 1018.61 1018.66 1018.74 1018.86 1018.86 1018.77 1018.66 1018.42 1018.02 1017.45 1016.93 1016.36 1015.71 1014.94 1014.21 1013.73 1013.33 1012.93 1012.42 1011.84 1011.25 1010.65 1010.14 1009.63 1009.24 1008.90 1008.60 1008.44 1008.39 1008.38 1008.43 1008.51 1008.63 1008.71 1008.65 1008.67 1008.64 1008.62 1008.48 1008.36
1019.14 1019.04 1019.06 1019.03 1019.10 1019.28 1019.41 1019.29 1019.10 1018.83 1018.52 1018.04 1017.51 1016.93 1016.23 1015.61 1015.01 1014.54 1014.04 1013.53 1012.90 1012.25 1011.63 1010.99 1010.41 1009.83 1009.33 1008.90 1008.51 1008.29 1008.18 1008.14 1008.24 1008.36 1008.48 1008.64 1008.72 1008.75 1008.74 1008.74 1008.64 1008.54 1008.40
1019.53 1019.38 1019.55 1019.60 1019.69 1019.78 1019.80 1019.60 1019.32 1019.03 1018.72 1018.15 1017.58 1016.94 1016.28 1015.81 1015.36 1014.91 1014.37 1013.74 1012.99 1012.30 1011.56 1010.83 1010.18 1009.58 1008.97 1008.41 1007.90 1007.62 1007.55 1007.77 1008.00 1008.27 1008.48 1008.69 1008.80 1008.90 1008.88 1008.81 1008.70 1008.51 1008.70
1019.98 1019.76 1020.13 1020.30 1020.36 1020.35 1020.10 1019.81 1019.53 1019.26 1018.85 1018.30 1017.67 1017.09 1016.60 1016.22 1015.69 1015.14 1014.62 1013.97 1013.12 1012.39 1011.49 1010.72 1009.99 1009.40 1008.73 1008.23 1007.85 1007.64 1007.63 1007.75 1007.99 1008.42 1008.64 1008.85 1009.01 1009.08 1009.09 1008.99 1008.80 1008.93 1009.20
1020.41 1020.39 1020.99 1021.02 1020.89 1020.73 1020.38 1020.09 1019.83 1019.50 1019.06 1018.54 1017.96 1017.51 1017.05 1016.58 1016.04 1015.44 1014.85 1014.10 1013.14 1012.46 1011.74 1010.85 1010.11 1009.42 1008.79 1008.37 1008.12 1007.86 1007.91 1008.19 1008.49 1008.74 1008.95 1009.17 1009.30 1009.39 1009.33 1009.24 1009.30 1009.54 1009.81
Wind_Speed
5 4 5 5 5 3 2 1 2 2 3 3 3 4 4 5 4 4 5 5 5 6 5 5 8 7 6 7 7 7 7 6 9 6 7 8 9 10 11 10 11 11 10
6 5 5 4 3 1 3 4 3 4 4 4 4 5 5 6 6 6 8 6 6 7 7 6 9 8 10 10 8 8 7 8 5 11 8 7 10 10 9 12 10 10 10
5 5 4 3 2 5 4 4 4 4 5 5 4 5 6 7 7 8 8 9 9 8 5 7 9 9 10 9 9 7 7 8 7 7 9 8 6 9 11 10 11 12 10
5 4 3 3 4 4 4 5 5 5 6 6 5 6 7 8 8 8 9 10 9 7 5 6 8 8 10 10 8 7 7 7 6 6 7 7 8 9 8 8 11 10 11
5 4 4 4 3 4 5 5 5 5 5 5 5 6 6 6 6 7 8 8 7 7 6 7 7 10 14 11 6 7 9 8 6 7 8 7 7 8 7 8 9 10 11
4 4 4 4 4 5 5 5 4 5 4 4 5 5 7 6 9 10 6 4 4 6 8 8 8 12 10 14 14 16 15 10 10 7 8 6 8 6 7 8 7 6 6
4 4 4 4 5 5 3 3 5 5 4 5 5 5 6 5 5 1 4 3 6 7 8 9 9 7 10 8 11 17 17 16 13 9 8 9 10 10 8 10 8 8 8
5 5 4 3 3 2 3 5 5 4 4 5 6 5 5 4 4 3 5 4 6 8 8 9 9 10 7 8 10 11 11 9 9 7 9 10 10 10 8 9 9 9 10
5 4 4 3 3 3 4 5 4 4 4 5 5 7 6 5 7 5 4 4 7 9 9 8 9 9 8 8 10 11 11 9 9 13 14 13 12 12 8 7 5 6 5
5 4 3 2 3 4 4 5 3 3 6 6 8 5 5 6 6 8 6 4 7 6 9 8 11 9 9 10 9 8 10 9 10 11 11 9 7 7 10 6 5 5 3
4 2 1 2 2 3 4 2 3 5 5 5 5 3 5 5 8 9 11 6 6 7 7 7 6 10 12 13 11 8 8 10 11 8 7 6 6 6 5 5 6 4 4
3 2 0 1 2 2 3 4 4 4 4 4 4 4 4 5 7 9 11 11 12 8 10 8 8 10 13 14 11 11 12 11 5 6 6 6 6 5 6 7 7 6 7
3 1 1 3 2 2 3 5 3 3 3 2 2 4 5 6 6 10 13 13 14 9 9 11 14 14 13 10 11 12 12 4 5 5 5 6 5 5 7 7 6 6 8
2 1 2 3 4 3 3 3 3 3 2 2 3 5 6 7 7 7 8 10 11 10 11 8 9 13 14 11 9 6 4 5 5 5 4 5 5 5 5 5 4 5 2
2 1 3 2 3 4 3 3 3 3 3 2 2 4 6 8 8 11 11 8 8 10 11 8 7 7 6 5 5 4 5 5 4 4 4 4 5 4 5 4 4 4 2
2 1 1 2 2 3 3 4 5 7 8 3 4 5 5 10 15 15 17 17 15 16 5 7 7 6 6 6 5 5 5 6 4 3 3 4 4 3 4 4 3 3 3
2 1 2 3 3 3 2 2 3 4 4 5 6 10 12 14 15 16 17 16 16 11 6 7 7 7 7 5 5 5 5 4 5 4 3 3 3 3 4 2 3 3 3
1 1 2 3 3 3 3 2 2 3 5 6 6 7 13 15 17 19 16 12 8 7 7 7 8 7 7 6 6 5 4 4 4 3 3 3 2 3 2 1 2 3 3
0 2 2 2 2 2 3 3 3 4 5 5 6 7 10 13 17 18 13 7 8 8 8 8 7 7 6 6 5 5 4 4 3 3 2 3 2 2 1 0 1 3 3
2 4 2 2 3 3 3 3 4 4 5 5 7 9 9 9 10 10 8 8 7 8 8 8 8 7 7 7 5 4 4 4 3 2 2 2 2 2 2 1 1 2 2
1 3 3 2 4 4 3 3 4 4 4 6 8 8 11 9 10 9 9 9 8 7 8 8 8 7 7 5 5 4 4 3 3 2 1 2 2 2 2 0 1 1 1
2 3 3 4 4 5 4 4 4 4 6 8 9 8 10 9 9 9 9 9 8 8 7 8 7 7 6 6 5 4 4 3 2 1 2 2 2 1 2 1 0 0 1
3 3 4 4 5 5 5 4 4 5 7 9 10 9 8 9 9 9 9 9 9 9 8 7 7 7 6 5 5 4 4 3 1 2 3 3 3 2 1 1 0 1 1
4 5 5 5 4 5 5 5 5 7 8 10 9 8 8 9 9 10 9 9 9 9 8 8 7 9 9 7 5 4 2 2 2 4 5 4 3 3 2 1 2 3 6
4 6 5 4 4 4 5 6 6 8 9 9 8 9 9 9 9 9 9 9 9 9 10 10 8 11 10 11 9 8 3 6 5 6 4 5 5 4 2 2 3 7 9
5 7 4 3 4 5 5 6 7 8 9 9 8 8 9 9 9 9 9 10 10 10 12 9 11 15 13 9 10 7 8 8 8 7 5 5 4 3 3 4 8 7 8
Wind_Direction
152 151 137 134 142 121 78 279 299 312 290 286 286 294 282 275 277 281 274 273 273 285 287 289 297 296 289 291 289 288 288 282 285 296 292 297 297 296 311 317 306 306 307
152 152 124 114 103 107 248 252 252 268 282 273 278 285 282 266 267 263 271 273 262 273 277 300 301 312 303 298 291 291 287 278 276 292 298 295 297 301 306 310 307 304 301
153 137 125 130 180 241 253 264 271 267 274 282 271 276 282 277 273 269 264 268 266 261 278 298 303 308 309 303 296 291 297 284 272 279 294 298 297 306 318 308 310 306 300
152 144 143 204 231 256 276 275 271 255 271 285 277 272 266 276 280 282 279 273 273 270 272 296 301 306 302 306 309 313 314 313 285 279 290 302 303 308 299 311 315 318 313
155 159 216 239 242 259 261 266 273 273 276 279 284 288 286 290 285 288 292 290 287 295 299 300 300 300 312 313 313 313 310 306 305 300 295 298 298 307 308 315 303 313 316
160 210 231 239 243 249 257 274 290 290 288 290 295 292 300 297 298 310 311 322 320 310 308 305 297 299 292 303 308 308 306 306 305 304 300 299 305 305 314 310 305 310 323
182 217 218 232 248 245 251 289 281 290 288 293 292 286 283 285 300 45 6 345 324 313 305 306 300 292 294 299 303 308 296 296 301 302 303 305 305 305 304 303 309 314 298
199 211 230 207 214 253 284 279 289 286 291 287 286 279 273 259 255 284 343 337 314 304 299 295 282 286 273 312 310 304 296 291 299 299 296 294 297 299 289 285 299 299 294
206 221 201 207 243 268 272 294 288 282 277 275 270 285 249 268 269 274 338 312 303 300 295 286 279 290 288 301 310 302 300 295 308 307 299 291 287 295 299 302 298 314 316
193 190 203 228 262 275 290 293 274 272 282 295 294 269 256 277 281 279 273 295 291 293 298 290 286 290 289 304 300 295 299 310 317 315 314 309 304 290 304 288 283 286 296
193 166 210 268 280 277 284 286 286 288 289 292 299 296 280 275 297 286 279 272 275 288 293 293 295 302 310 308 296 289 280 307 308 298 295 296 302 303 294 286 278 261 279
162 136 250 336 340 339 314 297 289 297 307 327 322 310 300 306 298 292 293 276 273 278 288 288 277 290 308 305 302 287 285 298 291 291 294 299 306 308 305 305 286 266 250
148 115 28 6 352 335 310 299 307 332 330 326 311 308 309 311 302 298 291 283 288 279 278 273 273 286 287 292 287 289 300 291 278 280 285 295 303 299 298 298 302 287 277
150 125 18 4 331 322 297 283 298 304 305 296 313 323 321 313 318 323 322 315 307 297 286 280 273 273 272 269 286 291 284 277 280 285 287 293 303 309 308 312 304 323 303
137 27 16 332 316 310 288 273 280 260 227 298 323 314 315 316 315 305 307 312 304 292 289 282 284 287 284 291 287 286 291 287 268 281 280 283 289 308 309 319 308 326 337
101 19 315 303 292 294 311 319 230 239 276 289 266 232 309 267 289 308 313 304 299 308 285 287 287 287 287 290 299 295 291 292 284 280 279 278 277 300 304 309 318 326 339
164 290 296 290 294 303 318 319 328 316 357 50 346 331 314 297 308 309 305 309 306 309 296 303 299 297 296 292 293 288 283 284 289 274 272 276 273 275 292 326 338 339 346
163 315 295 293 293 293 300 290 272 301 328 324 316 305 304 306 304 303 301 309 314 319 308 307 309 313 310 297 286 284 270 273 270 268 259 262 274 275 284 322 341 347 350
21 309 311 310 292 299 308 285 313 341 320 308 320 317 315 309 303 299 298 313 312 316 320 315 309 305 300 298 289 288 267 272 272 269 252 245 248 267 234 268 329 336 335
356 344 343 344 338 337 341 326 339 334 329 325 327 323 324 324 327 324 329 327 326 323 320 317 315 311 308 303 301 291 277 279 276 259 241 221 217 250 192 133 356 12 9
55 47 40 27 5 360 352 349 352 345 343 333 327 316 307 320 320 320 332 337 333 320 315 314 314 311 306 307 305 298 290 287 280 259 211 191 181 199 122 98 329 346 341
53 47 46 29 3 2 13 15 19 3 345 337 328 325 312 330 324 331 338 334 327 318 312 309 307 307 308 303 295 289 286 284 279 208 162 158 165 184 145 163 278 345 43
63 66 42 32 33 32 42 30 9 352 342 334 332 328 325 332 337 341 336 330 326 323 321 317 314 312 309 302 286 266 272 269 235 168 153 148 151 136 121 148 87 79 95
63 59 63 57 44 38 24 6 353 343 338 335 332 327 333 338 339 339 335 328 328 326 323 323 320 317 315 315 307 299 252 199 176 152 147 138 124 118 111 75 24 86 96
71 75 64 52 37 20 6 5 353 348 342 337 334 341 339 342 340 339 333 330 326 328 329 330 329 331 332 336 346 358 40 120 130 130 127 116 109 99 84 53 51 95 101
78 75 59 44 30 10 11 359 354 350 344 338 342 345 343 340 339 336 331 328 326 331 332 334 335 341 344 350 355 13 94 102 110 115 117 109 107 87 74 57 84 96 98